Location: Bauersach School (historical)
(38.0926°N, 89.4806°W)
Time: 03:08:51
(UTC+00:00)

Cosmos 1937 Rocket - Pass Details

Date: 11 December 2025
Orbit: 743 x 775 km, 74.0° (Epoch: 21 January)

Event Time Altitude Azimuth Distance (km) Brightness Sun altitude
Rises 23:37:42 0° 169° (S) 3,205 6.8 -11.4°
Reaches altitude 10° 23:40:20 10° 158° (SSE) 2,278 5.9 -11.9°
Maximum altitude 23:44:44 29° 100° (E) 1,357 4.3 -12.7°
Enters shadow 23:47:36 18° 53° (NE) 1,809 4.8 -13.3°
